Theta_e
297 291 290 290 291 289 294 291 286 287 291 290 289 291 295 292 290 290 293 297 302 305 313 313 315 317 317 319 322 328 328 328 328 326 326 325 328 330 330 331 330 329 329 327
293 288 291 292 292 291 288 287 291 290 291 289 286 288 292 290 291 291 292 292 296 298 298 297 303 309 313 316 321 323 327 328 328 329 329 325 325 323 325 328 330 330 328 328
289 289 293 294 290 288 286 284 284 287 289 289 286 286 289 289 290 291 291 292 292 294 296 294 295 297 305 311 316 322 325 328 328 329 325 320 322 321 325 326 326 327 329 328
288 291 292 291 290 291 287 290 289 287 287 284 284 281 286 288 288 290 292 291 292 293 293 293 293 292 296 307 312 320 322 325 327 327 326 325 325 324 324 325 326 323 324 327
287 288 289 288 290 291 287 291 289 287 285 283 281 278 283 284 286 286 290 292 293 295 294 293 293 293 294 299 303 310 316 318 321 326 326 324 322 324 319 320 323 324 325 326
289 289 293 292 292 292 292 289 289 286 284 279 285 280 280 284 287 288 289 293 295 296 292 292 291 294 296 297 298 299 302 308 315 320 323 323 322 318 319 320 323 324 324 323
285 285 287 290 287 288 290 288 279 279 278 277 277 278 286 287 286 288 290 290 290 289 290 292 293 295 297 299 300 302 301 300 299 304 320 322 322 319 320 321 322 321 321 320
282 279 285 287 287 284 289 288 279 272 272 276 279 277 283 288 290 288 289 289 290 290 290 292 294 296 297 299 301 301 300 300 299 297 298 312 323 323 322 320 320 319 317 319
281 280 285 286 287 290 285 284 288 279 270 273 277 280 286 287 288 288 290 290 291 291 292 293 295 296 296 299 301 302 302 301 301 302 302 301 315 318 318 317 315 316 314 313
284 280 284 285 287 285 287 289 281 280 270 270 276 277 281 282 288 290 288 291 291 291 293 293 294 295 295 297 300 300 301 301 302 302 304 305 310 315 315 314 311 310 308 308
284 283 281 284 283 282 283 283 282 284 279 274 271 277 283 287 287 287 289 291 292 292 293 293 294 294 295 296 298 298 298 299 299 299 301 304 305 306 307 306 305 303 302 301
286 283 278 280 284 285 283 284 285 281 278 277 278 280 284 286 286 288 289 291 291 292 293 294 294 294 294 295 295 296 296 296 296 295 295 297 297 298 298 297 296 298 295 295
287 279 272 279 282 284 282 282 284 283 281 279 276 282 285 286 288 288 289 289 292 293 293 293 292 293 294 294 294 294 294 293 293 293 293 292 293 294 293 293 292 293 291 291
292 282 280 278 280 283 282 283 284 284 279 280 279 282 285 284 286 289 290 289 292 293 293 292 292 293 293 293 293 292 291 291 291 291 290 290 289 291 291 290 290 289 289 288
289 280 280 281 282 284 283 284 284 283 286 281 285 281 285 286 287 290 290 290 291 292 292 292 292 292 292 292 291 291 290 289 289 289 288 287 286 287 287 286 286 286 285 284
286 276 280 276 282 282 281 283 285 286 286 285 281 282 285 286 289 289 292 291 291 292 293 293 293 292 292 291 290 290 288 288 288 287 286 286 285 285 284 284 284 284 283 283
284 279 276 272 280 281 277 282 283 284 285 284 281 287 286 286 288 290 291 292 292 293 294 294 294 293 291 291 291 289 288 287 286 285 284 284 284 284 283 283 283 283 282 282
283 283 281 276 278 274 282 284 286 285 287 288 283 285 287 289 291 291 292 293 293 293 293 294 294 293 291 290 289 287 286 285 285 284 284 283 283 283 282 282 281 281 281 281
286 285 278 278 276 280 285 283 283 283 284 287 287 288 288 287 287 289 290 291 293 294 294 294 294 292 289 290 288 287 285 285 284 283 283 283 283 282 281 280 280 280 280 279
284 286 285 267 275 274 281 286 286 288 282 286 288 288 288 288 285 291 288 289 290 291 292 292 291 288 289 287 287 286 284 284 283 283 283 282 282 281 280 280 279 278 277 279
275 276 281 268 271 276 282 284 286 280 281 283 285 287 286 288 290 288 288 287 285 286 288 288 288 287 288 286 286 285 284 284 283 281 281 280 279 279 279 277 276 276 276 276
278 276 274 271 269 276 282 284 284 285 284 285 287 286 286 285 286 285 285 285 285 283 284 284 284 284 283 285 286 284 283 281 280 280 279 278 277 278 277 276 273 273 274 273
278 281 278 282 280 284 283 285 286 287 288 286 286 286 286 286 284 284 284 283 283 282 282 280 281 281 280 281 284 283 279 279 278 278 276 275 275 275 274 273 273 273 273 273
282 283 280 282 283 283 284 284 285 285 286 286 286 285 285 285 285 284 283 283 281 279 280 277 279 278 277 278 280 281 279 278 278 276 274 273 274 272 272 274 274 274 273 273
283 285 280 279 282 283 284 286 287 285 284 285 284 285 285 285 284 284 280 279 281 280 277 277 278 278 276 275 276 277 277 277 276 275 273 273 273 272 272 273 273 273 273 276
280 282 282 280 286 288 287 287 286 285 285 285 285 284 284 284 285 282 279 280 278 277 275 276 276 276 275 274 274 274 275 277 275 273 273 272 272 271 272 272 270 276 277 279
Wind_Speed
3 5 15 7 3 3 5 4 5 3 2 3 6 8 13 4 4 7 8 9 9 11 11 6 7 9 7 7 8 11 11 11 8 5 6 5 7 5 5 5 7 7 6 6
5 11 4 8 8 4 3 4 5 4 3 1 2 10 12 6 6 9 11 8 12 7 8 7 7 7 9 10 11 10 12 11 11 8 7 4 5 3 3 4 6 8 8 7
9 4 8 7 5 9 3 4 4 2 2 1 5 7 9 4 5 6 8 9 6 11 14 9 9 11 9 10 12 12 13 12 11 12 4 3 3 2 3 2 3 5 8 8
5 3 9 5 5 5 5 5 3 5 4 4 1 10 9 6 10 8 12 9 11 12 10 9 9 9 11 14 9 10 10 11 11 11 9 11 9 8 5 6 5 5 6 6
7 8 5 8 6 6 4 4 3 4 4 4 4 4 6 2 10 8 11 12 13 16 14 12 12 10 8 8 8 7 7 7 7 11 11 9 8 7 3 3 6 5 5 5
7 2 9 10 7 12 9 5 6 5 4 5 17 6 6 9 10 7 8 13 15 15 10 10 5 5 5 5 6 7 8 7 7 9 11 12 12 8 6 4 5 5 4 4
3 4 4 6 6 4 8 12 2 2 5 10 3 7 19 7 8 7 10 8 8 9 9 10 10 8 7 8 7 6 8 7 6 7 8 10 10 9 11 9 6 5 4 3
11 8 9 5 7 7 15 14 7 8 6 3 4 10 10 11 7 8 8 8 5 7 6 7 7 7 8 7 7 7 7 6 6 6 7 5 8 7 6 6 4 3 4 4
7 4 2 3 5 10 7 18 8 5 3 3 7 8 11 9 10 8 11 7 9 6 6 6 6 6 6 6 6 7 6 4 5 6 5 7 7 7 6 5 4 3 5 3
7 5 1 3 4 1 11 11 6 1 3 5 5 5 8 1 10 12 9 14 7 4 6 5 6 6 4 4 3 3 3 4 3 3 2 3 6 6 6 6 7 8 6 6
5 5 0 4 7 8 5 8 3 3 5 6 1 8 9 12 4 7 8 6 8 8 7 5 4 3 4 4 4 4 4 4 3 3 3 3 4 5 7 7 7 8 8 8
6 7 4 6 2 2 2 8 12 9 13 2 3 10 3 7 3 3 7 6 3 5 6 6 6 6 5 5 4 4 4 4 4 4 5 5 5 7 8 7 6 5 10 8
9 1 4 5 4 2 4 3 4 3 3 9 6 13 2 3 4 3 4 4 4 5 6 6 6 6 5 5 5 5 4 5 5 5 6 6 5 7 8 7 7 6 10 9
11 4 9 12 6 10 7 8 7 6 3 5 11 11 6 4 3 5 4 3 5 7 7 6 5 5 5 6 6 6 5 5 5 5 6 6 6 7 8 7 7 9 8 11
8 9 5 3 3 4 7 13 12 11 23 12 24 10 10 8 6 6 4 4 5 6 7 8 8 8 7 6 6 5 5 5 5 6 6 5 6 7 8 8 8 8 8 8
1 3 4 3 3 4 3 8 16 24 19 18 3 9 4 3 4 4 6 6 7 8 10 10 9 9 9 8 7 6 6 6 6 6 6 6 7 7 7 8 8 9 8 7
7 6 4 5 2 4 5 14 15 12 11 9 15 11 4 4 6 7 8 10 10 12 12 12 13 11 9 9 9 8 8 6 7 7 6 7 7 8 7 7 7 8 7 6
8 8 3 3 1 3 8 3 7 16 14 14 4 5 9 11 9 7 9 9 11 9 10 10 9 8 8 8 8 8 8 7 8 8 7 7 8 8 7 6 6 6 5 6
2 6 4 6 4 8 18 7 7 8 12 14 13 12 9 4 3 11 10 9 10 8 7 6 8 7 8 11 11 11 9 8 9 9 8 7 8 9 7 6 6 4 6 5
4 6 9 4 9 17 4 10 7 6 20 8 13 14 15 8 6 16 4 2 3 1 2 6 7 6 10 10 12 12 11 10 10 9 9 7 7 7 7 6 6 3 3 5
4 3 15 3 6 11 7 3 6 9 6 1 5 8 6 11 7 2 3 4 3 4 4 2 5 6 7 10 12 11 11 11 7 8 8 7 6 7 6 6 3 4 5 6
9 8 5 4 1 16 7 5 13 4 1 3 2 4 7 4 4 4 5 5 5 4 4 4 5 5 5 8 10 9 10 7 9 9 8 7 6 6 5 7 4 3 5 5
1 7 9 13 8 3 6 2 3 3 3 3 2 0 5 6 3 3 3 4 4 5 4 3 4 6 3 4 7 10 7 10 10 10 9 7 6 5 5 6 6 4 4 4
4 3 4 5 4 4 6 0 2 4 4 4 3 3 2 5 6 5 4 3 3 4 4 2 4 4 3 2 4 6 10 10 11 11 9 7 8 7 5 4 5 6 5 4
4 8 6 2 1 1 3 6 5 4 5 8 6 3 5 5 3 4 3 2 3 4 2 2 3 3 4 2 5 5 8 10 9 8 7 7 5 6 5 3 3 3 1 3
5 8 6 7 9 5 4 11 8 8 6 7 6 5 3 3 4 4 3 2 3 3 2 3 4 5 5 5 5 5 7 9 11 9 7 6 6 4 4 5 2 2 6 10
Wind_Direction
185 159 207 184 169 42 160 163 169 196 181 206 229 226 243 247 248 256 226 219 225 227 245 215 210 192 193 208 191 197 187 194 181 177 181 193 206 196 201 189 191 194 199 195
115 222 203 137 138 134 147 192 225 302 36 180 299 255 255 188 234 216 222 229 227 227 241 228 223 209 192 202 197 201 201 193 193 195 200 178 173 198 179 186 204 195 192 196
161 220 154 159 152 148 173 146 149 204 121 338 334 271 264 238 224 235 234 221 221 218 238 232 216 214 197 200 200 201 201 195 195 195 145 103 89 91 151 175 212 216 202 197
159 153 153 144 187 153 186 185 127 96 73 212 238 268 246 242 242 225 240 218 229 224 230 228 213 214 208 213 190 198 197 191 193 182 186 193 200 205 202 195 205 186 205 219
191 145 141 202 153 139 165 140 85 82 107 22 237 274 260 210 243 234 241 234 231 231 219 222 220 213 209 175 185 187 180 177 173 185 193 192 198 198 164 168 191 202 211 208
183 165 176 183 179 171 148 89 58 48 54 256 236 209 242 211 228 244 229 238 234 232 217 220 196 170 174 154 161 164 179 198 177 178 191 195 203 180 177 188 189 194 207 194
140 175 182 151 127 140 152 127 105 201 207 237 100 172 244 253 245 231 232 253 271 260 216 205 183 186 173 173 168 165 174 192 190 197 199 199 206 190 195 195 196 178 179 195
172 204 166 190 164 168 183 172 168 178 204 215 130 231 249 223 262 237 241 255 256 262 239 212 178 173 168 171 164 164 178 187 192 200 214 231 212 201 200 194 177 185 158 154
142 243 29 149 138 139 161 215 177 104 20 49 203 283 304 232 255 246 251 248 246 232 218 194 161 167 162 166 174 170 174 183 190 208 203 208 214 197 183 159 135 124 109 112
191 142 320 144 117 215 186 164 175 146 165 244 265 280 232 288 227 230 230 226 231 196 186 171 177 167 157 140 130 143 157 165 156 153 179 191 200 183 141 131 125 112 104 94
137 103 277 147 211 153 135 194 209 164 165 183 253 256 220 217 230 288 287 253 222 195 186 181 176 161 142 122 130 136 133 139 127 120 110 120 108 109 105 107 105 112 103 93
188 120 162 195 225 161 187 184 189 200 217 227 179 261 192 238 272 305 301 279 212 172 179 171 171 160 159 153 141 148 134 124 101 92 93 79 80 90 95 93 91 116 105 92
177 242 82 13 356 28 199 171 215 116 64 216 150 261 318 326 348 297 285 265 197 160 166 178 174 180 173 162 159 150 132 122 113 114 112 102 94 97 100 103 97 104 101 98
137 143 165 191 215 133 187 174 163 154 176 231 237 262 303 308 296 298 280 227 175 186 191 188 184 187 183 178 172 147 139 137 130 121 111 111 112 110 108 107 99 95 103 104
160 195 152 156 144 170 187 186 173 193 222 188 250 228 222 248 204 236 236 136 168 203 196 199 196 195 187 177 166 160 149 139 137 116 115 118 105 95 97 95 96 99 94 96
348 230 108 345 355 185 218 209 195 208 221 235 349 267 220 209 211 215 229 180 203 217 217 208 200 190 190 179 170 158 154 150 132 133 134 123 117 109 105 110 113 105 102 99
133 121 94 243 313 120 320 221 203 221 219 212 233 234 183 219 231 220 221 215 206 209 206 204 206 197 178 176 169 169 157 135 135 131 134 131 129 118 116 119 117 116 113 116
135 126 98 163 42 218 232 119 193 207 229 225 269 190 199 218 224 242 219 208 218 204 210 199 186 180 168 155 148 136 143 147 140 144 148 141 131 125 128 127 124 118 119 120
77 147 128 147 198 299 276 188 145 168 255 217 221 230 246 209 99 262 230 209 224 206 202 202 178 162 154 162 154 146 151 152 149 159 159 149 142 142 142 136 129 110 116 109
83 147 189 117 199 230 87 192 156 107 267 198 186 215 225 139 204 247 121 136 180 165 198 186 172 146 157 161 153 154 161 161 169 164 159 146 137 140 138 134 128 115 117 125
106 84 196 163 228 276 238 145 141 174 251 189 197 224 180 199 227 80 87 55 47 37 9 70 141 162 157 147 152 160 158 179 153 132 128 127 127 131 131 119 101 132 127 114
150 146 184 85 102 257 161 69 165 215 123 162 205 201 198 146 130 69 55 58 58 64 53 86 116 121 126 146 153 153 168 132 129 129 127 126 123 126 132 131 113 109 117 112
256 176 172 186 210 225 209 71 132 139 144 189 186 176 159 140 158 135 104 63 52 51 49 26 110 115 87 117 155 156 147 138 135 134 135 138 130 126 128 135 134 124 126 138
247 181 151 97 213 195 200 293 204 167 144 115 80 105 93 126 132 114 113 94 62 37 35 30 90 98 98 84 113 124 148 145 144 143 148 145 144 140 139 140 155 154 159 157
179 138 161 288 34 12 252 202 174 117 99 104 88 88 86 110 113 117 130 127 115 129 108 103 119 131 157 119 117 133 144 146 144 139 143 152 150 156 143 119 146 140 123 170
187 169 177 216 198 166 184 174 156 142 152 138 119 101 72 63 98 101 121 165 154 153 141 136 157 163 179 158 151 144 151 155 147 149 161 166 157 156 146 144 113 187 191 198